Showing default

SYRACUSE 4B, 57214

Orbit data source: Space-Track

SYRACUSE 4B, 57214 is a payload satellite owned by DGA (FR) in GEO that was launched on Wed, 05 Jul 2023 UTC via an ARIANE 5ECA+ launch vehicle from the French Guiana (FRGUI). Payload-class satellites include a variety of spacecraft equipped with specific instruments for various scientific and technological missions. These include communications satellites like Starlink; space stations such as the ISS; scientific satellites like the Hubble; Earth observation satellites from companies like Planet Labs, Umbra, and HawkEye 360; GPS; miniature CubeSats for education and research; and military/defense satellites.

Not visible in the next 10 days
Identifier
57214, 2023-093B
Orbit
GEO
Country
Flag of FRFR
Related business
Manufacturer
Airbus/Toulouse
Mission
Operational Defense Communications
Bus & Motor
EUROSTAR 3000EOR, XPS/PPS-5000
Mass
3,572 kg wet, ~3,200 kg dry
Launch date (UTC)
2023-07-05 (3 years ago)
Launch vehicle
ARIANE 5ECA+
Launch site
French Guiana (FRGUI)
Object type
Payload
Rocket body
Debris
Shape & HBR
Box + 2 Pan, 15.0 m
Radar Cross Section
34.063 m², Large (>1 m²)

Expand to show TLE details & history
Last TLE update: 2 days ago

TLE from 2 days ago
0 SYRACUSE 4B
1 57214U 23093B   26170.96293725 -.00000060  00000-0  00000-0 0  9992
2 57214   0.0176  27.0469 0000331 143.7789  77.5597  1.00267268  6995
Epoch: 2026-06-19T23:06Z
TLE epoch observation values (Epoch: 2026-06-19T23:06:37.778Z)
Latitude
-0.02772°
Longitude
-6.43999°
Altitude
35,787.058 km
Speed
3.075 km/s
True Right ascension
16h 33m 36s
True Declination
0° 01' 40"
Sunlit
Object was in daylight at epoch
Visualization orbit readout
Latitude
Unknown
Longitude
Unknown
Altitude
Unknown
Speed
Unknown
Apparent Right ascension
Unknown
Apparent Declination
Unknown
Sunlit
N/A
Visualization observer readout
Local Sidereal Time
21:30:27
Azimuth
Unknown
Elevation
Unknown
Doppler factor
Unknown
Orbital elements
Apogee altitude
35,790.327 km
Perigee altitude
35,787.536 km
Semi-major axis
42,167.069 km
Eccentricity
0.00003
Inclination
0.0176°
RAAN
27.0469°
Arg. of periapsis
143.7789°
True anomaly
77.5634°
Mean anomaly
77.5597°
Eccentric anomaly
77.56155°
Mean motion
0.25066 °/min
Orbital period
1,436.21 mins
BSTAR
0
Loading maneuver chart data...
Computing Atmospheric mass density...
Loading historical data...
Loading historical data...
Loading historical data...
Loading historical data...
Loading historical data...
Loading historical data...
Loading historical data...
Other satellites on launch #93 in the year 2023 (2023-07-05 UTC)

Documentation

Showing up to 5 results
|